User: anonymous   Login
Location: Ar Ranvel
(48.3000°N, 4.8833°W)
Time: 23:41:05
(UTC+00:00)
Language:

Cosmos 2278 Rocket - Orbit

View from above orbital plane
View from above orbital plane
View from above satellite
View from above satellite

Ground track
Ground track

The orbit data is extracted from the following two-line orbital elements,

1 23088U 94023B   21268.66088973 -.00000092  00000-0 -23199-4 0  9996
2 23088  70.9988 244.6719 0005769 259.3918 100.6555 14.14699745416374
Epoch (UTC): 25 September 2021 15:51:40
Eccentricity: 0.0005769
inclination: 70.9988°
perigee height: 839 km
apogee height: 847 km
right ascension of ascending node: 244.6719°
argument of perigee: 259.3918°
revolutions per day: 14.14699745
mean anomaly at epoch: 100.6555°
orbit number at epoch: 41637

The dashed part of the orbit path shows where the satellite is in the earth's shadow,  

DLR